{"data":{"norad_id":69190,"intl_designator":"2026-114J","name":"STARLINK-37282","alt_names":[],"object_type":"PAYLOAD","status":"ACTIVE","operator":null,"country":"US","launch_date":"2026-05-25","launch_site_code":"AFETR","launch_vehicle":null,"mission":null,"orbit_class":"UNKNOWN","rcs_meters":null,"size_class":null,"mass_kg":null,"dimensions":null,"purposes":["comms"],"wikipedia_slug":null,"has_3d_model":false,"image_url":null,"decayed_at":null,"tle_current":{"epoch":"2026-09-19T23:23:03.001056Z","epoch_age_seconds":72442,"freshness":"FRESH","line1":"1 69190U 26114J   26262.97434029  .00009201  00000+0  28307-3 0  9999","line2":"2 69190  53.1574 116.3103 0001375  85.2422 274.8737 15.34404360 19363","mean_motion":15.3440436,"eccentricity":0.0001375,"inclination_deg":53.1574,"raan_deg":116.3103,"arg_perigee_deg":85.2422,"mean_anomaly_deg":274.8737,"bstar":0.00028307,"rev_number":1936,"period_min":93.847491413541,"perigee_km":461.74966764777,"apogee_km":463.63089515015,"semimajor_km":6840.827281399,"source":"CELESTRAK","updated_at":"2026-09-20T09:00:44.097235Z"}}}